Hourly Data Report for August 15, 2004

All times are specified in Local Standard Time (LST). Add 1 hour to adjust for Daylight Saving Time where and when it is observed.

TORONTO CITY
ONTARIO

43°40'00.000" N
79°24'00.000" W
112.50 m
6158355
71508
XTO

Download Data

Hourly Data (August 2004)
Hourly Data Report for August 15, 2004
TIME Temp Definition
°C
Dew Point Definition
°C
Rel Hum Definition
%
Wind Dir Definition
10's deg

Wind Spd Definition
km/h
Visibility Definition
km
Stn Press Definition
kPa
Hmdx Definition


Wind Chill Definition


Weather Definition


00:00 18.5 13.3 72 LegendMM LegendMM LegendMM 100.96     LegendNANA
01:00 17.8 14.2 79 LegendMM LegendMM LegendMM 100.98     LegendNANA
02:00 17.3 14.3 83 LegendMM LegendMM LegendMM 100.99     LegendNANA
03:00 16.9 14.4 85 LegendMM LegendMM LegendMM 101.00     LegendNANA
04:00 16.9 14.4 85 LegendMM LegendMM LegendMM 101.02     LegendNANA
05:00 16.5 14.4 87 LegendMM LegendMM LegendMM 101.06     LegendNANA
06:00 16.4 14.5 89 LegendMM LegendMM LegendMM 101.12     LegendNANA
07:00 17.0 14.3 84 LegendMM LegendMM LegendMM 101.16     LegendNANA
08:00 18.0 14.6 81 LegendMM LegendMM LegendMM 101.20     LegendNANA
09:00 19.6 15.1 75 LegendMM LegendMM LegendMM 101.21     LegendNANA
10:00 20.7 14.9 69 LegendMM LegendMM LegendMM 101.22 25   LegendNANA
11:00 21.6 14.7 65 LegendMM LegendMM LegendMM 101.19 25   LegendNANA
12:00 22.1 14.7 63 LegendMM LegendMM LegendMM 101.14 26   LegendNANA
13:00 21.7 16.4 72 LegendMM LegendMM LegendMM 101.13 27   LegendNANA
14:00 21.6 15.6 69 LegendMM LegendMM LegendMM 101.15 26   LegendNANA
15:00 21.0 15.4 70 LegendMM LegendMM LegendMM 101.13 25   LegendNANA
16:00 21.5 15.9 70 LegendMM LegendMM LegendMM 101.12 26   LegendNANA
17:00 21.4 15.5 69 LegendMM LegendMM LegendMM 101.09 26   LegendNANA
18:00 20.5 16.0 75 LegendMM LegendMM LegendMM 101.07 25   LegendNANA
19:00 19.7 15.8 78 LegendMM LegendMM LegendMM 101.08     LegendNANA
20:00 19.2 15.4 79 LegendMM LegendMM LegendMM 101.09     LegendNANA
21:00 17.9 15.3 85 LegendMM LegendMM LegendMM 101.10     LegendNANA
22:00 17.9 14.2 79 LegendMM LegendMM LegendMM 101.12     LegendNANA
23:00 16.4 13.2 81 LegendMM LegendMM LegendMM 101.13     LegendNANA

Notes on Data Quality.

Legend

  • E = Estimated
  • M = Missing
  • NA = Not Available
Date modified: